Regional Weather Roundup
Issued by NWS

Home | Current Version | Previous Version | Graphics & Text | Print | Product List | Glossary Off
Versions: 1 2 3 4 5 6 7 8 9 10 11 12 13 14 15 16 17 18 19 20 21 22 23 24 25 26 27 28 29 30 31 32 33 34 35 36 37 38 39 40 41 42 43 44 45 46 47 48 49 50

000
ASUS43 KMKX 250300
RWRWI

WISCONSIN REGIONAL WEATHER ROUNDUP
NATIONAL WEATHER SERVICE MILWAUKEE/SULLIVAN WI
1000 PM CDT SUN JUL 24 2016

NOTE: "FAIR" INDICATES FEW OR NO CLOUDS BELOW 12,000 FEET WITH NO
SIGNIFICANT WEATHER AND/OR OBSTRUCTIONS TO VISIBILITY.

WIZ001-002-006>008-014>016-023>028-250400-
NORTHWEST WISCONSIN

CITY           SKY/WX    TMP DP  RH WIND       PRES   REMARKS
SUPERIOR ARPT  CLEAR     70  62  75 W7        29.86S
ASHLAND        PTCLDY    70  62  76 SW8       29.87R
HAYWARD        CLEAR     71  61  70 SW3       29.91R
SIREN          NOT AVBL
CUMBERLAND     CLEAR     68  59  73 W7        29.93R
RICE LAKE      CLEAR     69  61  75 W5        29.93S
CHETEK         CLEAR     73  62  69 NW5       29.91S
LADYSMITH      CLEAR     70  63  78 W6        29.93R
EAU CLAIRE     NOT AVBL
MENOMONIE      CLEAR     74  63  69 W7        29.92R
NEW RICHMOND   CLEAR     69  61  75 W7        29.94R
OSCEOLA        CLEAR     69  64  81 W6        29.96R
$$

WIZ003>005-009-010-017-018-250400-
NORTH CENTRAL WISCONSIN

CITY           SKY/WX    TMP DP  RH WIND       PRES   REMARKS
MANITOWISH WTR CLEAR     66  64  90 CALM      29.89S
ARBOR VITAE    CLEAR     72  64  75 W3        29.90S
WOODRUFF       CLEAR     72  64  75 W3        29.90S
RHINELANDER    CLEAR     70  61  73 W6        29.90R
EAGLE RIVER    CLEAR     65  59  79 W5        29.89R
LAND O LAKES   PTCLDY    70  60  71 NW3       29.90R
PHILLIPS       CLEAR     69  64  82 W3        29.90S
TOMAHAWK       CLEAR     68  61  77 CALM      29.91R
MEDFORD        CLOUDY    67  64  88 NW5       29.91R
MERRILL        CLOUDY    71  64  76 NW5       29.90R
$$

WIZ029-030-035-036-043>047-250400-
CENTRAL WISCONSIN

CITY           SKY/WX    TMP DP  RH WIND       PRES   REMARKS
WAUSAU         PTCLDY    74  62  66 NW8       29.88R
MOSINEE        CLEAR     72  63  73 NW3       29.91R
MARSHFIELD     CLEAR     70  62  76 W6        29.92R
STEVENS POINT  CLOUDY    73  63  68 NW6       29.89R
WAUPACA        CLOUDY    79  65  62 W6        29.88R HX  81
WAUTOMA        CLOUDY    75  68  78 W3        29.90R
WISC RAPIDS    PTCLDY    71  62  73 W6        29.92R
CAMP DOUGLAS   NOT AVBL
$$

WIZ011>013-019>022-031-037>040-048>050-250400-
NORTHEAST WISCONSIN

CITY           SKY/WX    TMP DP  RH WIND       PRES   REMARKS
ANTIGO         PTCLDY    70  64  80 CALM      29.90R
SHAWANO        PTCLDY    76  66  71 W3        29.86R
OCONTO         CLEAR     73  73 100 SW3       29.82S
STURGEON BAY   PTCLDY    76  68  76 SW3       29.84R
GREEN BAY      CLOUDY    75  69  81 W6        29.84S
MANITOWOC      NOT AVBL
APPLETON       NOT AVBL
CLINTONVILLE   MOCLDY    73  63  68 W5        29.85S
OSHKOSH        CLOUDY    77  67  71 W5        29.87R
$$

WIZ032>034-041-042-053>061-250400-
SOUTHWEST WISCONSIN

CITY           SKY/WX    TMP DP  RH WIND       PRES   REMARKS
LA CROSSE      CLEAR     76  66  71 NW8       29.92R
SPARTA         CLEAR     71  65  83 W3        29.93R
VIROQUA        CLEAR     70  66  87 W5        29.95R
BOSCOBEL       CLEAR     72  69  90 CALM      29.93R
PRAIRIE DU CHI PTCLDY    74  64  69 W6        29.93R
PLATTEVILLE    CLOUDY    72  70  92 W5        29.95R
$$

WIZ056-057-062-063-064-067-068-250400-
SOUTH CENTRAL WISCONSIN

CITY           SKY/WX    TMP DP  RH WIND       PRES   REMARKS
REEDSBURG      CLOUDY    74  67  79 W5        29.91R
BARABOO/DELLS  CLOUDY    74  64  70 W5        29.91R
LONE ROCK      NOT AVBL
MINERAL POINT  CLOUDY    73  70  88 W5        29.94R
MADISON        CLOUDY    77  66  68 NW5       29.89S
MIDDLETON      CLOUDY    73  70  91 CALM      29.90S
WATERTOWN      MOCLDY    75  69  79 W3        29.88S
MONROE         CLOUDY    77  66  69 W8        29.91S
JANESVILLE     NOT AVBL
$$

WIZ051-052-058>065-066-070>072-250400-
SOUTHEAST WISCONSIN

CITY           SKY/WX    TMP DP  RH WIND       PRES   REMARKS
MILWAUKEE      CLOUDY    86  70  58 NW7       29.86R HX  90
WAUKESHA       CLOUDY    79  64  61 W7        29.90R HX  81
MILWAUKEE/TIMM MOCLDY    81  64  57 NW6       29.88R HX  82
RACINE         CLOUDY    83  75  77 W5        29.89R HX  90
BURLINGTON     MOCLDY    81  71  70 NW9       29.89R HX  85
KENOSHA        CLOUDY    83  76  79 NW8       29.89S HX  91
FOND DU LAC    CLOUDY    78  68  71 W6        29.87S HX  80
SHEBOYGAN      CLOUDY    76  67  73 NW5       29.85S
WEST BEND      MOCLDY    79  64  61 W6        29.87S HX  81
JUNEAU         CLOUDY    76  68  76 W3        29.90S
$$

LSZ147-162-250400-
LAKE SUPERIOR

STATION/POSITION TIME  TEMP    WIND        PRES    WAVE
                       AIR SEA DIR/SP/G            HT/PER
                 (UTC) (F)     (DEG/KT/KT) (MB)    (FT/S)
W MID LAKE BUOY  0150   64 59  250/ 12/ 12 1008.3R   2/ 4
DEVILS ISLAND    0200   68     250/ 17/ 19 1009.6R
PORT WING        0217   74     240/ 10/ 16 1010.8
SAXON HARBOR     0200   75     200/  5/  6 1010.2F
$$

LMZ867-665-643>646-250400-
LAKE MICHIGAN

STATION/POSITION TIME  TEMP    WIND        PRES    WAVE
                       AIR SEA DIR/SP/G            HT/PER
                 (UTC) (F)     (DEG/KT/KT) (MB)    (FT/S)
CHAMBERS ISLAND  0200   79     240/  5/  7 1009.1R
S GREEN BAY BUOY 0200   77 74  250/  6/  8   N/A
N MID LAKE BUOY  0150   69 68  210/ 12/ 14 1007.7R   4/ 6
NORTHPORT PIER   0200   80     280/  6/ 12 1008.8R
KEWAUNEE LAKESHO 0200   80                   N/A
SHEBOYGAN LAKESH 0200   83     290/  4/  6 1010.8R
PORT WASHINGTON  0200   84     300/  6/ 11 1011.5R
MILWAUKEE LAKESH 0210   86     300/  9/ 14   N/A
S MID LAKE BUOY  0150   77 72  220/ 16/ 19 1009.6R   2/ 4
KENOSHA   LAKESH 0200   87     250/  4/  8 1011.2R
$$

TC  - TEMPERATURE IN CELSIUS
VSB - VISIBILITY IN STATUTE MILES
WCI - WIND CHILL INDEX
HX  - HEAT INDEX





USA.gov is the U.S. government's official web portal to all federal, state and local government web resources and services.